Year,Month,Day,Hour,Minute,Value (Times are PST for windgust in km/hr)
2020,09,10,00,14,1.60
2020,09,10,03,09,1.60
2020,09,10,03,10,4.80
2020,09,10,03,11,4.80
2020,09,10,03,16,1.60
2020,09,10,03,17,4.80
2020,09,10,05,02,1.60
2020,09,10,05,07,4.80
2020,09,10,05,08,3.20
2020,09,10,05,09,4.80
2020,09,10,05,10,3.20
2020,09,10,05,13,1.60
2020,09,10,05,22,1.60
2020,09,10,05,23,6.40
2020,09,10,05,24,4.80
2020,09,10,05,26,8.10
2020,09,10,05,27,6.40
2020,09,10,05,28,4.80
2020,09,10,05,29,3.20
2020,09,10,05,30,3.20
2020,09,10,05,32,1.60
2020,09,10,05,36,6.40
2020,09,10,05,37,1.60
2020,09,10,05,38,4.80
2020,09,10,05,46,3.20
2020,09,10,05,47,4.80
2020,09,10,05,48,4.80
2020,09,10,05,51,6.40
2020,09,10,05,52,6.40
2020,09,10,05,55,1.60
2020,09,10,05,56,4.80
2020,09,10,06,08,1.60
2020,09,10,06,10,4.80
2020,09,10,06,11,3.20
2020,09,10,06,17,1.60
2020,09,10,06,23,1.60
2020,09,10,06,26,4.80
2020,09,10,06,27,6.40
2020,09,10,06,28,4.80
2020,09,10,06,30,6.40
2020,09,10,06,31,6.40
2020,09,10,06,32,6.40
2020,09,10,06,33,8.10
2020,09,10,06,34,1.60
2020,09,10,06,36,6.40
2020,09,10,06,37,8.10
2020,09,10,06,38,6.40
2020,09,10,06,39,3.20
2020,09,10,06,41,9.60
2020,09,10,06,42,8.10
2020,09,10,06,43,6.40
2020,09,10,06,44,8.10
2020,09,10,06,45,8.10
2020,09,10,06,46,6.40
2020,09,10,06,47,3.20
2020,09,10,06,50,3.20
2020,09,10,06,53,6.40
2020,09,10,06,54,6.40
2020,09,10,06,55,4.80
2020,09,10,06,56,6.40
2020,09,10,08,51,1.60
2020,09,10,09,00,3.20
2020,09,10,09,02,4.80
2020,09,10,09,03,6.40
2020,09,10,09,04,6.40
2020,09,10,09,05,8.10
2020,09,10,09,06,6.40
2020,09,10,09,07,4.80
2020,09,10,09,08,6.40
2020,09,10,09,09,9.60
2020,09,10,09,10,9.60
2020,09,10,09,11,11.30
2020,09,10,09,12,9.60
2020,09,10,09,13,4.80
2020,09,10,09,14,8.10
2020,09,10,09,15,4.80
2020,09,10,09,16,4.80
2020,09,10,09,17,3.20
2020,09,10,09,18,9.60
2020,09,10,09,19,6.40
2020,09,10,09,20,6.40
2020,09,10,09,21,9.60
2020,09,10,09,22,8.10
2020,09,10,09,23,8.10
2020,09,10,09,24,6.40
2020,09,10,09,28,8.10
2020,09,10,09,29,1.60
2020,09,10,09,30,6.40
2020,09,10,09,31,1.60
2020,09,10,09,34,4.80
2020,09,10,09,35,6.40
2020,09,10,09,36,1.60
2020,09,10,09,38,1.60
2020,09,10,09,40,6.40
2020,09,10,09,41,4.80
2020,09,10,09,42,6.40
2020,09,10,09,43,4.80
2020,09,10,09,44,11.30
2020,09,10,09,45,8.10
2020,09,10,09,46,9.60
2020,09,10,09,47,4.80
2020,09,10,09,48,8.10
2020,09,10,09,49,9.60
2020,09,10,09,50,4.80
2020,09,10,09,51,9.60
2020,09,10,09,52,14.50
2020,09,10,09,53,9.60
2020,09,10,09,54,11.30
2020,09,10,09,55,9.60
2020,09,10,09,56,4.80
2020,09,10,09,57,16.10
2020,09,10,09,58,14.50
2020,09,10,09,59,14.50
2020,09,10,10,00,9.60
2020,09,10,10,01,11.30
2020,09,10,10,02,6.40
2020,09,10,10,03,17.70
2020,09,10,10,04,8.10
2020,09,10,10,05,11.30
2020,09,10,10,06,9.60
2020,09,10,10,07,11.30
2020,09,10,10,08,16.10
2020,09,10,10,09,14.50
2020,09,10,10,10,8.10
2020,09,10,10,11,6.40
2020,09,10,10,12,8.10
2020,09,10,10,13,16.10
2020,09,10,10,14,9.60
2020,09,10,10,15,9.60
2020,09,10,10,16,9.60
2020,09,10,10,17,14.50
2020,09,10,10,18,11.30
2020,09,10,10,19,8.10
2020,09,10,10,20,9.60
2020,09,10,10,21,9.60
2020,09,10,10,22,12.90
2020,09,10,10,23,11.30
2020,09,10,10,24,8.10
2020,09,10,10,25,9.60
2020,09,10,10,26,9.60
2020,09,10,10,27,9.60
2020,09,10,10,28,9.60
2020,09,10,10,29,9.60
2020,09,10,10,30,9.60
2020,09,10,10,31,8.10
2020,09,10,10,32,11.30
2020,09,10,10,33,9.60
2020,09,10,10,34,9.60
2020,09,10,10,35,9.60
2020,09,10,10,36,8.10
2020,09,10,10,37,11.30
2020,09,10,10,38,11.30
2020,09,10,10,39,9.60
2020,09,10,10,40,11.30
2020,09,10,10,41,11.30
2020,09,10,10,42,8.10
2020,09,10,10,43,9.60
2020,09,10,10,44,11.30
2020,09,10,10,45,8.10
2020,09,10,10,46,8.10
2020,09,10,10,47,9.60
2020,09,10,10,48,8.10
2020,09,10,10,49,6.40
2020,09,10,10,50,4.80
2020,09,10,10,51,14.50
2020,09,10,10,52,12.90
2020,09,10,10,53,9.60
2020,09,10,10,54,8.10
2020,09,10,10,55,9.60
2020,09,10,10,56,9.60
2020,09,10,10,57,9.60
2020,09,10,10,58,19.30
2020,09,10,10,59,16.10
2020,09,10,11,00,11.30
2020,09,10,11,01,9.60
2020,09,10,11,02,11.30
2020,09,10,11,03,11.30
2020,09,10,11,04,8.10
2020,09,10,11,05,8.10
2020,09,10,11,06,11.30
2020,09,10,11,07,9.60
2020,09,10,11,08,11.30
2020,09,10,11,09,11.30
2020,09,10,11,10,11.30
2020,09,10,11,11,16.10
2020,09,10,11,12,14.50
2020,09,10,11,13,14.50
2020,09,10,11,14,11.30
2020,09,10,11,15,9.60
2020,09,10,11,16,16.10
2020,09,10,11,17,20.90
2020,09,10,11,18,8.10
2020,09,10,11,19,19.30
2020,09,10,11,20,19.30
2020,09,10,11,21,22.50
2020,09,10,11,22,17.70
2020,09,10,11,23,16.10
2020,09,10,11,24,19.30
2020,09,10,11,25,20.90
2020,09,10,11,26,14.50
2020,09,10,11,27,19.30
2020,09,10,11,28,11.30
2020,09,10,11,29,12.90
2020,09,10,11,30,14.50
2020,09,10,11,31,19.30
2020,09,10,11,32,16.10
2020,09,10,11,33,16.10
2020,09,10,11,34,16.10
2020,09,10,11,35,19.30
2020,09,10,11,36,16.10
2020,09,10,11,37,14.50
2020,09,10,11,38,9.60
2020,09,10,11,39,9.60
2020,09,10,11,40,20.90
2020,09,10,11,41,8.10
2020,09,10,11,42,9.60
2020,09,10,11,43,4.80
2020,09,10,11,44,6.40
2020,09,10,11,45,8.10
2020,09,10,11,46,11.30
2020,09,10,11,47,9.60
2020,09,10,11,48,16.10
2020,09,10,11,49,14.50
2020,09,10,11,50,11.30
2020,09,10,11,51,8.10
2020,09,10,11,52,11.30
2020,09,10,11,53,14.50
2020,09,10,11,54,11.30
2020,09,10,11,55,11.30
2020,09,10,11,56,9.60
2020,09,10,11,57,11.30
2020,09,10,11,58,14.50
2020,09,10,11,59,17.70
2020,09,10,12,00,17.70
2020,09,10,12,01,16.10
2020,09,10,12,02,20.90
2020,09,10,12,03,11.30
2020,09,10,12,04,16.10
2020,09,10,12,05,12.90
2020,09,10,12,06,9.60
2020,09,10,12,07,11.30
2020,09,10,12,08,9.60
2020,09,10,12,09,16.10
2020,09,10,12,10,12.90
2020,09,10,12,11,16.10
2020,09,10,12,12,17.70
2020,09,10,12,13,11.30
2020,09,10,12,14,11.30
2020,09,10,12,15,16.10
2020,09,10,12,16,17.70
2020,09,10,12,17,20.90
2020,09,10,12,18,16.10
2020,09,10,12,19,14.50
2020,09,10,12,20,16.10
2020,09,10,12,21,17.70
2020,09,10,12,22,12.90
2020,09,10,12,23,14.50
2020,09,10,12,24,17.70
2020,09,10,12,25,17.70
2020,09,10,12,26,11.30
2020,09,10,12,27,11.30
2020,09,10,12,28,12.90
2020,09,10,12,29,14.50
2020,09,10,12,30,11.30
2020,09,10,12,31,17.70
2020,09,10,12,32,19.30
2020,09,10,12,33,14.50
2020,09,10,12,34,14.50
2020,09,10,12,35,12.90
2020,09,10,12,36,14.50
2020,09,10,12,37,17.70
2020,09,10,12,38,11.30
2020,09,10,12,39,11.30
2020,09,10,12,40,11.30
2020,09,10,12,41,11.30
2020,09,10,12,42,16.10
2020,09,10,12,43,11.30
2020,09,10,12,44,14.50
2020,09,10,12,45,16.10
2020,09,10,12,46,17.70
2020,09,10,12,47,17.70
2020,09,10,12,48,16.10
2020,09,10,12,49,14.50
2020,09,10,12,50,11.30
2020,09,10,12,51,9.60
2020,09,10,12,52,17.70
2020,09,10,12,53,17.70
2020,09,10,12,54,17.70
2020,09,10,12,55,17.70
2020,09,10,12,56,16.10
2020,09,10,12,57,9.60
2020,09,10,12,58,16.10
2020,09,10,12,59,16.10
2020,09,10,13,00,8.10
2020,09,10,13,01,12.90
2020,09,10,13,02,14.50
2020,09,10,13,03,17.70
2020,09,10,13,04,14.50
2020,09,10,13,05,17.70
2020,09,10,13,06,11.30
2020,09,10,13,07,11.30
2020,09,10,13,08,11.30
2020,09,10,13,09,16.10
2020,09,10,13,10,16.10
2020,09,10,13,11,16.10
2020,09,10,13,12,9.60
2020,09,10,13,13,14.50
2020,09,10,13,14,11.30
2020,09,10,13,15,16.10
2020,09,10,13,16,17.70
2020,09,10,13,17,16.10
2020,09,10,13,18,12.90
2020,09,10,13,19,9.60
2020,09,10,13,20,11.30
2020,09,10,13,21,9.60
2020,09,10,13,22,8.10
2020,09,10,13,23,8.10
2020,09,10,13,24,11.30
2020,09,10,13,25,9.60
2020,09,10,13,26,9.60
2020,09,10,13,27,9.60
2020,09,10,13,28,8.10
2020,09,10,13,29,8.10
2020,09,10,13,30,8.10
2020,09,10,13,31,9.60
2020,09,10,13,32,9.60
2020,09,10,13,33,8.10
2020,09,10,13,34,9.60
2020,09,10,13,35,6.40
2020,09,10,13,36,8.10
2020,09,10,13,37,9.60
2020,09,10,13,38,4.80
2020,09,10,13,39,8.10
2020,09,10,13,40,9.60
2020,09,10,13,41,1.60
2020,09,10,13,42,11.30
2020,09,10,13,43,16.10
2020,09,10,13,44,12.90
2020,09,10,13,45,12.90
2020,09,10,13,46,8.10
2020,09,10,13,47,16.10
2020,09,10,13,48,14.50
2020,09,10,13,49,14.50
2020,09,10,13,50,8.10
2020,09,10,13,51,9.60
2020,09,10,13,52,8.10
2020,09,10,13,53,9.60
2020,09,10,13,54,11.30
2020,09,10,13,55,9.60
2020,09,10,13,56,8.10
2020,09,10,13,57,8.10
2020,09,10,13,58,11.30
2020,09,10,13,59,9.60
2020,09,10,14,00,14.50
2020,09,10,14,01,16.10
2020,09,10,14,02,14.50
2020,09,10,14,03,14.50
2020,09,10,14,04,9.60
2020,09,10,14,05,11.30
2020,09,10,14,06,9.60
2020,09,10,14,07,9.60
2020,09,10,14,08,9.60
2020,09,10,14,09,11.30
2020,09,10,14,10,12.90
2020,09,10,14,11,8.10
2020,09,10,14,12,9.60
2020,09,10,14,13,11.30
2020,09,10,14,14,11.30
2020,09,10,14,15,6.40
2020,09,10,14,16,8.10
2020,09,10,14,17,11.30
2020,09,10,14,18,12.90
2020,09,10,14,19,8.10
2020,09,10,14,20,8.10
2020,09,10,14,21,6.40
2020,09,10,14,22,9.60
2020,09,10,14,23,11.30
2020,09,10,14,24,11.30
2020,09,10,14,25,8.10
2020,09,10,14,26,6.40
2020,09,10,14,27,9.60
2020,09,10,14,28,8.10
2020,09,10,14,29,6.40
2020,09,10,14,30,11.30
2020,09,10,14,31,8.10
2020,09,10,14,32,9.60
2020,09,10,14,33,14.50
2020,09,10,14,34,11.30
2020,09,10,14,35,11.30
2020,09,10,14,36,8.10
2020,09,10,14,37,8.10
2020,09,10,14,38,8.10
2020,09,10,14,39,9.60
2020,09,10,14,40,6.40
2020,09,10,14,41,9.60
2020,09,10,14,42,9.60
2020,09,10,14,43,8.10
2020,09,10,14,44,11.30
2020,09,10,14,45,8.10
2020,09,10,14,46,14.50
2020,09,10,14,47,11.30
2020,09,10,14,48,9.60
2020,09,10,14,49,9.60
2020,09,10,14,50,11.30
2020,09,10,14,51,16.10
2020,09,10,14,52,19.30
2020,09,10,14,53,14.50
2020,09,10,14,54,8.10
2020,09,10,14,55,14.50
2020,09,10,14,56,11.30
2020,09,10,14,57,8.10
2020,09,10,14,58,6.40
2020,09,10,14,59,17.70
2020,09,10,15,00,17.70
2020,09,10,15,01,16.10
2020,09,10,15,02,12.90
2020,09,10,15,03,9.60
2020,09,10,15,04,4.80
2020,09,10,15,05,1.60
2020,09,10,15,06,9.60
2020,09,10,15,07,4.80
2020,09,10,15,08,8.10
2020,09,10,15,09,6.40
2020,09,10,15,10,6.40
2020,09,10,15,11,11.30
2020,09,10,15,12,6.40
2020,09,10,15,13,8.10
2020,09,10,15,14,8.10
2020,09,10,15,15,12.90
2020,09,10,15,16,11.30
2020,09,10,15,17,11.30
2020,09,10,15,18,9.60
2020,09,10,15,19,8.10
2020,09,10,15,20,14.50
2020,09,10,15,21,9.60
2020,09,10,15,22,9.60
2020,09,10,15,23,8.10
2020,09,10,15,24,9.60
2020,09,10,15,25,14.50
2020,09,10,15,26,6.40
2020,09,10,15,27,4.80
2020,09,10,15,28,8.10
2020,09,10,15,29,9.60
2020,09,10,15,30,9.60
2020,09,10,15,31,9.60
2020,09,10,15,32,9.60
2020,09,10,15,33,11.30
2020,09,10,15,34,9.60
2020,09,10,15,35,6.40
2020,09,10,15,36,9.60
2020,09,10,15,37,8.10
2020,09,10,15,38,4.80
2020,09,10,15,39,8.10
2020,09,10,15,40,8.10
2020,09,10,15,41,6.40
2020,09,10,15,42,8.10
2020,09,10,15,43,8.10
2020,09,10,15,44,6.40
2020,09,10,15,45,6.40
2020,09,10,15,46,4.80
2020,09,10,15,47,4.80
2020,09,10,15,48,9.60
2020,09,10,15,49,8.10
2020,09,10,15,50,9.60
2020,09,10,15,51,9.60
2020,09,10,15,52,8.10
2020,09,10,15,53,6.40
2020,09,10,15,54,14.50
2020,09,10,15,55,11.30
2020,09,10,15,56,8.10
2020,09,10,15,57,6.40
2020,09,10,15,58,3.20
2020,09,10,15,59,6.40
2020,09,10,16,00,8.10
2020,09,10,16,01,6.40
2020,09,10,16,02,9.60
2020,09,10,16,03,8.10
2020,09,10,16,04,6.40
2020,09,10,16,05,14.50
2020,09,10,16,06,8.10
2020,09,10,16,07,8.10
2020,09,10,16,08,3.20
2020,09,10,16,09,8.10
2020,09,10,16,10,11.30
2020,09,10,16,11,6.40
2020,09,10,16,12,3.20
2020,09,10,16,13,8.10
2020,09,10,16,14,8.10
2020,09,10,16,15,4.80
2020,09,10,16,16,8.10
2020,09,10,16,17,9.60
2020,09,10,16,18,8.10
2020,09,10,16,19,6.40
2020,09,10,16,20,6.40
2020,09,10,16,21,8.10
2020,09,10,16,22,4.80
2020,09,10,16,23,8.10
2020,09,10,16,24,6.40
2020,09,10,16,25,9.60
2020,09,10,16,26,6.40
2020,09,10,16,27,8.10
2020,09,10,16,28,8.10
2020,09,10,16,29,8.10
2020,09,10,16,30,9.60
2020,09,10,16,31,9.60
2020,09,10,16,32,8.10
2020,09,10,16,33,3.20
2020,09,10,16,34,8.10
2020,09,10,16,35,8.10
2020,09,10,16,36,6.40
2020,09,10,16,38,6.40
2020,09,10,16,39,6.40
2020,09,10,16,40,4.80
2020,09,10,16,41,9.60
2020,09,10,16,42,6.40
2020,09,10,16,43,8.10
2020,09,10,16,44,9.60
2020,09,10,16,45,8.10
2020,09,10,16,46,8.10
2020,09,10,16,47,6.40
2020,09,10,16,48,8.10
2020,09,10,16,49,4.80
2020,09,10,16,50,6.40
2020,09,10,16,51,4.80
2020,09,10,16,52,8.10
2020,09,10,16,53,11.30
2020,09,10,16,54,11.30
2020,09,10,16,55,8.10
2020,09,10,16,56,6.40
2020,09,10,16,57,8.10
2020,09,10,16,58,3.20
2020,09,10,16,59,4.80
2020,09,10,17,00,9.60
2020,09,10,17,01,8.10
2020,09,10,17,02,8.10
2020,09,10,17,03,6.40
2020,09,10,17,04,8.10
2020,09,10,17,05,9.60
2020,09,10,17,06,6.40
2020,09,10,17,07,6.40
2020,09,10,17,08,8.10
2020,09,10,17,09,8.10
2020,09,10,17,10,8.10
2020,09,10,17,11,8.10
2020,09,10,17,12,9.60
2020,09,10,17,13,6.40
2020,09,10,17,14,8.10
2020,09,10,17,15,4.80
2020,09,10,17,16,6.40
2020,09,10,17,17,6.40
2020,09,10,17,18,4.80
2020,09,10,17,19,4.80
2020,09,10,17,20,4.80
2020,09,10,17,21,6.40
2020,09,10,17,22,8.10
2020,09,10,17,23,6.40
2020,09,10,17,24,6.40
2020,09,10,17,25,6.40
2020,09,10,17,26,6.40
2020,09,10,17,27,8.10
2020,09,10,17,28,4.80
2020,09,10,17,29,6.40
2020,09,10,17,30,6.40
2020,09,10,17,31,3.20
2020,09,10,17,32,6.40
2020,09,10,17,33,9.60
2020,09,10,17,34,8.10
2020,09,10,17,35,1.60
2020,09,10,17,36,6.40
2020,09,10,17,37,6.40
2020,09,10,17,38,1.60
2020,09,10,17,40,3.20
2020,09,10,17,41,4.80
2020,09,10,17,42,1.60
2020,09,10,17,43,6.40
2020,09,10,17,44,3.20
2020,09,10,17,45,6.40
2020,09,10,17,46,3.20
2020,09,10,17,47,1.60
2020,09,10,17,48,8.10
2020,09,10,17,49,1.60
2020,09,10,17,50,9.60
2020,09,10,17,51,9.60
2020,09,10,17,52,8.10
2020,09,10,17,53,1.60
2020,09,10,17,54,8.10
2020,09,10,17,56,3.20
2020,09,10,17,57,4.80
2020,09,10,17,58,4.80
2020,09,10,17,59,6.40
2020,09,10,18,01,4.80
2020,09,10,18,02,4.80
2020,09,10,18,03,6.40
2020,09,10,18,04,6.40
2020,09,10,18,05,6.40
2020,09,10,18,06,3.20
2020,09,10,18,07,4.80
2020,09,10,18,08,6.40
2020,09,10,18,09,6.40
2020,09,10,18,10,6.40
2020,09,10,18,11,6.40
2020,09,10,18,12,6.40
2020,09,10,18,13,4.80
2020,09,10,18,14,4.80
2020,09,10,18,15,6.40
2020,09,10,18,41,1.60
2020,09,10,18,50,1.60
2020,09,10,18,53,1.60
2020,09,10,19,10,1.60
2020,09,10,23,23,6.40
2020,09,10,23,24,4.80
2020,09,10,23,25,6.40
2020,09,10,23,26,6.40
2020,09,10,23,27,4.80
